EW5945 Weather Reports


Display with metric or nautical units.
time (UTC)temp
F
wind
direction
speed
MPH
gust
MPH
rain 1hr
in
rain 24hr
in
rain mn
in
humidity
%
barometer
mb
20260905171339 94 209 3.0 3.0 0.00 0.00 0.00 70 1010.8
20260905170838 94 356 3.0 7.0 0.00 0.00 0.00 70 1010.8
20260905170338 93 67 3.0 5.0 0.00 0.00 0.00 72 1010.8
20260905165838 93 244 2.0 5.0 0.00 0.00 0.00 73 1011.2
20260905165339 92 248 3.0 9.0 0.00 0.00 0.00 72 1011.2
20260905164838 92 226 3.0 10.0 0.00 0.00 0.00 72 1011.2
20260905164338 92 63 8.0 9.0 0.00 0.00 0.00 72 1011.5
20260905163838 92 242 8.0 9.0 0.00 0.00 0.00 72 1011.5
20260905163338 92 191 2.0 3.0 0.00 0.00 0.00 74 1011.5
20260905162841 91 252 5.0 10.0 0.00 0.00 0.00 73 1011.5
20260905162338 92 206 5.0 7.0 0.00 0.00 0.00 72 1011.5
20260905161839 92 156 2.0 3.0 0.00 0.00 0.00 74 1011.5
20260905161338 91 265 2.0 7.0 0.00 0.00 0.00 74 1011.9
20260905160839 91 263 5.0 12.0 0.00 0.00 0.00 76 1011.9
20260905160338 91 285 5.0 12.0 0.00 0.00 0.00 75 1011.9
20260905155839 90 139 2.0 3.0 0.00 0.00 0.00 75 1011.9
20260905155338 90 218 3.0 7.0 0.00 0.00 0.00 75 1011.9
20260905154839 90 217 3.0 3.0 0.00 0.00 0.00 77 1011.9
20260905154338 90 228 5.0 10.0 0.00 0.00 0.00 76 1012.2
20260905153839 90 282 6.0 12.0 0.00 0.00 0.00 76 1011.9
20260905153338 90 171 5.0 10.0 0.00 0.00 0.00 76 1012.2
20260905152838 89 209 6.0 7.0 0.00 0.00 0.00 76 1012.2
20260905152338 89 241 6.0 7.0 0.00 0.00 0.00 77 1012.2
20260905151839 89 277 5.0 5.0 0.00 0.00 0.00 77 1012.2
20260905151339 89 264 5.0 9.0 0.00 0.00 0.00 77 1012.2
20260905150839 89 193 3.0 9.0 0.00 0.00 0.00 78 1012.2
20260905150338 88 232 5.0 12.0 0.00 0.00 0.00 78 1012.2
20260905145838 88 258 6.0 10.0 0.00 0.00 0.00 79 1011.9
20260905145338 88 218 5.0 7.0 0.00 0.00 0.00 78 1011.9
20260905144838 88 272 8.0 9.0 0.00 0.00 0.00 79 1012.2
20260905144338 88 220 8.0 14.0 0.00 0.00 0.00 80 1012.2
20260905143838 87 224 8.0 9.0 0.00 0.00 0.00 82 1012.2
20260905143338 87 248 3.0 3.0 0.00 0.00 0.00 83 1012.2
20260905142838 87 237 5.0 5.0 0.00 0.00 0.00 83 1012.2
20260905142338 86 195 3.0 9.0 0.00 0.00 0.00 83 1012.2
20260905141838 86 238 6.0 12.0 0.00 0.00 0.00 83 1012.2
20260905141338 86 273 6.0 7.0 0.00 0.00 0.00 84 1012.2
20260905140839 85 249 3.0 3.0 0.00 0.00 0.00 84 1012.2
20260905140341 85 269 3.0 3.0 0.00 0.00 0.00 85 1012.2
20260905135838 85 208 3.0 5.0 0.00 0.00 0.00 85 1012.2
20260905135339 85 250 6.0 10.0 0.00 0.00 0.00 86 1012.2
20260905134838 85 263 8.0 9.0 0.00 0.00 0.00 87 1012.2
20260905134341 85 227 6.0 7.0 0.00 0.00 0.00 87 1012.2
20260905133839 84 230 3.0 5.0 0.00 0.00 0.00 87 1012.2
20260905133338 84 276 3.0 3.0 0.00 0.00 0.00 88 1012.5
20260905132839 84 234 6.0 7.0 0.00 0.00 0.00 88 1012.5
20260905132339 84 12 5.0 5.0 0.00 0.00 0.00 88 1012.5
20260905131840 83 277 8.0 9.0 0.00 0.00 0.00 89 1012.5
20260905131340 83 241 5.0 5.0 0.00 0.00 0.00 90 1012.5
20260905130839 83 219 6.0 7.0 0.00 0.00 0.00 90 1012.5
20260905130338 82 261 5.0 7.0 0.00 0.00 0.00 91 1012.5
20260905125838 82 216 5.0 9.0 0.00 0.00 0.00 92 1012.5
20260905125338 82 290 3.0 5.0 0.00 0.00 0.00 92 1012.5
20260905124839 81 274 3.0 7.0 0.00 0.00 0.00 93 1012.5
20260905124338 81 279 2.0 3.0 0.00 0.00 0.00 94 1012.5
20260905123838 81 264 3.0 7.0 0.00 0.00 0.00 94 1012.5
20260905123339 81 260 10.0 10.0 0.00 0.00 0.00 94 1012.5
20260905122838 80 265 3.0 5.0 0.00 0.00 0.00 95 1012.5
20260905122338 80 236 5.0 5.0 0.00 0.00 0.00 95 1012.5
20260905121838 80 237 5.0 5.0 0.00 0.00 0.00 96 1012.5
20260905121338 79 237 2.0 7.0 0.00 0.00 0.00 97 1012.5
20260905120839 79 268 3.0 5.0 0.00 0.00 0.00 97 1012.5
20260905120340 79 264 3.0 7.0 0.00 0.00 0.00 98 1012.5
20260905115839 79 236 2.0 5.0 0.00 0.00 0.00 98 1012.5
20260905114913 78 235 2.0 3.0 0.00 0.00 0.00 99 1012.5
20260905114338 78 227 3.0 3.0 0.00 0.00 0.00 99 1012.5
20260905113838 78 217 2.0 5.0 0.00 0.00 0.00 99 1012.5
20260905113339 78 219 3.0 3.0 0.00 0.00 0.00 100 1012.5
20260905112838 78 254 3.0 3.0 0.00 0.00 0.00 100 1012.2
20260905112338 77 223 2.0 5.0 0.00 0.00 0.00 100 1012.2
20260905111839 77 226 3.0 5.0 0.00 0.00 0.00 100 1012.2
20260905111338 77 139 2.0 2.0 0.00 0.00 0.00 100 1012.2
20260905110838 77 256 3.0 5.0 0.00 0.00 0.00 100 1012.2
20260905110338 77 237 2.0 2.0 0.00 0.00 0.00 100 1012.2
20260905105840 77 258 3.0 3.0 0.00 0.00 0.00 100 1012.2
20260905105338 77 266 0.0 3.0 0.00 0.00 0.00 100 1012.2
20260905104839 77 206 3.0 5.0 0.00 0.00 0.00 100 1012.2
20260905104338 77 212 3.0 3.0 0.00 0.00 0.00 100 1012.2
20260905103838 77 246 3.0 5.0 0.00 0.00 0.00 100 1012.2
20260905103338 77 224 2.0 2.0 0.00 0.00 0.00 100 1012.2
20260905102838 77 262 3.0 3.0 0.00 0.00 0.00 100 1011.9
20260905102338 77 234 2.0 3.0 0.00 0.00 0.00 100 1011.9
20260905101839 77 206 2.0 3.0 0.00 0.00 0.00 100 1011.9
20260905101340 77 257 2.0 3.0 0.00 0.00 0.00 100 1011.9
20260905100838 77 255 2.0 2.0 0.00 0.00 0.00 100 1011.9
20260905100338 77 250 2.0 2.0 0.00 0.00 0.00 100 1011.9
20260905095359 77 254 2.0 2.0 0.00 0.00 0.00 100 1011.9
20260905094839 77 232 2.0 2.0 0.00 0.00 0.00 100 1011.9
20260905094338 76 210 3.0 3.0 0.00 0.00 0.00 100 1011.9
20260905093838 76 227 3.0 3.0 0.00 0.00 0.00 100 1011.9
20260905093339 76 247 2.0 3.0 0.00 0.00 0.00 100 1011.9
20260905092838 76 217 3.0 3.0 0.00 0.00 0.00 100 1011.9
20260905092339 76 233 3.0 3.0 0.00 0.00 0.00 100 1011.9
20260905091839 76 231 3.0 3.0 0.00 0.00 0.00 99 1011.9
20260905091339 76 244 2.0 3.0 0.00 0.00 0.00 99 1011.9
20260905090838 76 204 3.0 3.0 0.00 0.00 0.00 99 1011.9
20260905090340 76 216 3.0 5.0 0.00 0.00 0.00 99 1011.9
20260905085839 76 226 3.0 5.0 0.00 0.00 0.00 99 1012.2
20260905085339 76 230 3.0 3.0 0.00 0.00 0.00 99 1012.2
20260905084838 76 225 3.0 3.0 0.00 0.00 0.00 98 1012.2
20260905084338 76 229 2.0 3.0 0.00 0.00 0.00 98 1012.2
20260905083840 76 253 3.0 3.0 0.00 0.00 0.00 98 1012.2
20260905083338 76 239 2.0 2.0 0.00 0.00 0.00 98 1011.9
20260905082840 76 254 2.0 5.0 0.00 0.00 0.00 97 1012.2
20260905082338 76 230 3.0 3.0 0.00 0.00 0.00 97 1012.2
20260905081838 76 252 6.0 7.0 0.00 0.00 0.00 97 1012.2
20260905081338 76 247 3.0 3.0 0.00 0.00 0.00 97 1012.2
20260905080839 76 211 3.0 5.0 0.00 0.00 0.00 97 1012.2
20260905080339 76 266 2.0 2.0 0.00 0.00 0.00 97 1012.2
20260905075838 76 280 2.0 3.0 0.00 0.00 0.00 97 1012.5
20260905075338 76 255 3.0 3.0 0.00 0.00 0.00 97 1012.5
20260905074838 76 230 3.0 3.0 0.00 0.00 0.00 97 1012.5
20260905074338 76 269 3.0 3.0 0.00 0.00 0.00 97 1012.5
20260905073838 76 245 3.0 3.0 0.00 0.00 0.00 97 1012.5
20260905073338 76 232 2.0 3.0 0.00 0.00 0.00 97 1012.5
20260905072838 76 247 2.0 2.0 0.00 0.00 0.00 96 1012.5
20260905072338 76 253 2.0 3.0 0.00 0.00 0.00 96 1012.5
20260905071838 76 251 2.0 2.0 0.00 0.00 0.00 96 1012.5
20260905071338 76 274 2.0 3.0 0.00 0.00 0.00 96 1012.5
20260905070838 76 263 2.0 2.0 0.00 0.00 0.00 96 1012.5
20260905070339 76 253 2.0 2.0 0.00 0.00 0.00 96 1012.5
20260905065838 76 233 2.0 3.0 0.00 0.00 0.00 96 1012.5
20260905065338 76 230 3.0 3.0 0.00 0.00 0.00 96 1012.9
20260905064838 76 283 2.0 3.0 0.00 0.00 0.00 95 1012.9
20260905064340 76 28 2.0 2.0 0.00 0.00 0.00 95 1012.9
20260905063838 76 280 0.0 0.0 0.00 0.00 0.00 95 1012.9
20260905063338 76 296 0.0 0.0 0.00 0.00 0.00 94 1012.9
20260905062838 76 313 0.0 0.0 0.00 0.00 0.00 94 1012.9
20260905062338 76 35 0.0 2.0 0.00 0.00 0.00 94 1012.9
20260905061839 76 32 0.0 0.0 0.00 0.00 0.00 94 1012.9
20260905061338 76 333 0.0 0.0 0.00 0.00 0.00 93 1012.9
20260905060839 77 323 0.0 0.0 0.00 0.00 0.00 93 1012.9
20260905060338 77 338 0.0 0.0 0.00 0.00 0.00 93 1013.2
20260905055839 77 353 0.0 0.0 0.00 0.00 0.00 93 1013.2
20260905055338 77 348 0.0 0.0 0.00 0.00 0.00 92 1013.2
20260905054838 77 352 0.0 0.0 0.00 0.00 0.00 92 1013.2
20260905054338 77 7 2.0 2.0 0.00 0.00 0.00 91 1013.2
20260905053839 77 312 0.0 0.0 0.00 0.00 0.00 91 1013.2
20260905053338 77 318 0.0 0.0 0.00 0.00 0.00 90 1013.2
20260905052838 78 280 0.0 0.0 0.00 0.00 0.00 90 1013.2
20260905052339 78 259 0.0 2.0 0.00 0.00 0.00 90 1013.5
20260905051838 78 265 2.0 3.0 0.00 0.00 0.00 90 1013.5
20260905051339 78 250 0.0 3.0 0.00 0.00 0.00 89 1013.5
20260905050838 78 236 3.0 3.0 0.00 0.00 0.00 89 1013.5
20260905050339 78 267 2.0 2.0 0.00 0.00 0.00 89 1013.2
20260905045840 78 266 2.0 2.0 0.00 0.00 0.00 89 1013.5
20260905045338 78 259 3.0 3.0 0.00 0.00 0.00 88 1013.5
20260905044838 78 226 2.0 2.0 0.00 0.00 0.00 89 1013.5
20260905044338 78 255 2.0 3.0 0.00 0.00 0.00 88 1013.5
20260905043839 78 280 0.0 0.0 0.00 0.00 0.00 88 1012.9
20260905043340 78 203 2.0 3.0 0.00 0.00 0.00 88 1013.2
20260905042838 78 222 2.0 2.0 0.00 0.00 0.00 88 1013.9
20260905042338 78 236 3.0 5.0 0.00 0.00 0.00 88 1013.9
20260905041839 78 213 2.0 2.0 0.00 0.00 0.00 88 1013.5
20260905041338 78 237 0.0 0.0 0.00 0.00 0.00 88 1013.9
20260905040838 78 235 2.0 2.0 0.00 0.00 0.00 88 1014.2
20260905040340 78 282 2.0 3.0 0.00 0.00 0.00 87 1014.9
20260905035839 78 260 2.0 2.0 0.00 0.00 0.00 87 1015.2
20260905035338 78 225 3.0 3.0 0.00 0.00 0.00 87 1015.2
20260905034838 78 217 2.0 2.0 0.00 0.00 0.00 87 1015.6
20260905034338 78 249 2.0 2.0 0.00 0.00 0.00 87 1015.6
20260905033838 78 299 2.0 2.0 0.00 0.00 0.00 87 1015.6
20260905033338 78 274 0.0 2.0 0.00 0.00 0.00 86 1015.9
20260905032839 79 143 2.0 2.0 0.00 0.00 0.00 86 1015.9
20260905032339 79 350 0.0 3.0 0.00 0.00 0.00 85 1016.3
20260905031838 79 136 5.0 5.0 0.00 0.00 0.00 86 1016.3
20260905031338 79 103 2.0 2.0 0.00 0.00 0.00 86 1016.3
20260905030839 79 96 3.0 5.0 0.00 0.00 0.00 86 1016.6
20260905030338 79 55 6.0 14.0 0.00 0.00 0.00 86 1016.6
20260905025839 80 24 5.0 10.0 0.00 0.00 0.00 86 1016.9
20260905025339 80 71 11.0 17.0 0.00 0.00 0.00 86 1016.9
20260905024839 80 76 8.0 10.0 0.00 0.00 0.00 88 1016.9
20260905024339 81 14 11.0 14.0 0.00 0.00 0.00 93 1016.6
20260905023839 81 50 13.0 14.0 0.00 0.00 0.00 96 1016.3
20260905023338 81 288 0.0 0.0 0.00 0.00 0.00 95 1015.6
20260905022838 81 283 0.0 2.0 0.00 0.00 0.00 95 1015.6
20260905022338 81 318 0.0 0.0 0.00 0.00 0.00 95 1015.6
20260905021838 81 307 0.0 2.0 0.00 0.00 0.00 95 1015.6
20260905021338 81 264 3.0 3.0 0.00 0.00 0.00 95 1015.6
20260905020838 81 330 0.0 0.0 0.00 0.00 0.00 95 1015.9
20260905020338 81 327 0.0 0.0 0.00 0.00 0.00 95 1015.9
20260905015838 81 307 0.0 0.0 0.00 0.00 0.00 94 1015.9
20260905015338 81 347 0.0 0.0 0.00 0.00 0.00 94 1015.6
20260905014838 81 349 0.0 0.0 0.00 0.00 0.00 94 1015.6
20260905014340 81 329 0.0 0.0 0.00 0.00 0.00 94 1015.6
20260905013838 81 238 2.0 3.0 0.00 0.00 0.00 94 1015.2
20260905013338 82 283 0.0 0.0 0.00 0.00 0.00 93 1015.2
20260905012839 82 306 0.0 0.0 0.00 0.00 0.00 93 1015.2
20260905012339 82 195 2.0 2.0 0.00 0.00 0.00 93 1015.2
20260905011838 82 253 3.0 3.0 0.00 0.00 0.00 93 1014.9
20260905011338 82 315 0.0 0.0 0.00 0.00 0.00 92 1014.6
20260905010838 82 229 0.0 0.0 0.00 0.00 0.00 92 1014.6
20260905010338 82 233 2.0 3.0 0.00 0.00 0.00 92 1014.6
20260905005838 82 228 3.0 3.0 0.00 0.00 0.00 91 1014.6
20260905005338 83 252 0.0 2.0 0.00 0.00 0.00 91 1014.6
20260905004838 83 66 2.0 3.0 0.00 0.00 0.00 91 1014.2
20260905004338 83 238 3.0 3.0 0.00 0.00 0.00 90 1014.2
20260905003838 83 267 2.0 3.0 0.00 0.00 0.00 90 1014.2
20260905003338 83 260 2.0 2.0 0.00 0.00 0.00 90 1014.2
20260905002838 83 224 2.0 3.0 0.00 0.00 0.00 89 1013.9
20260905002338 83 217 5.0 7.0 0.00 0.00 0.00 89 1014.2
20260905001838 83 225 2.0 2.0 0.00 0.00 0.00 89 1013.9
20260905001340 83 182 2.0 3.0 0.00 0.00 0.00 88 1013.9
20260905000840 84 271 2.0 3.0 0.00 0.00 0.00 88 1013.9
20260905000340 84 277 0.0 0.0 0.00 0.00 0.00 87 1013.9
20260904235838 84 222 2.0 2.0 0.00 0.00 0.00 87 1013.9
20260904235338 84 266 2.0 2.0 0.00 0.00 0.00 86 1013.9
20260904234839 84 278 2.0 2.0 0.00 0.00 0.00 86 1013.9
20260904234339 85 250 2.0 2.0 0.00 0.00 0.00 86 1013.9
20260904233838 85 271 0.0 0.0 0.00 0.00 0.00 85 1013.9
20260904233338 85 256 0.0 2.0 0.00 0.00 0.00 84 1013.9
20260904232838 86 236 2.0 2.0 0.00 0.00 0.00 84 1013.9
20260904232338 86 243 2.0 2.0 0.00 0.00 0.00 83 1013.5
20260904231839 86 12 0.0 0.0 0.00 0.00 0.00 83 1013.5
20260904231339 87 213 2.0 2.0 0.00 0.00 0.00 81 1013.5
20260904230839 87 274 2.0 2.0 0.00 0.00 0.00 81 1013.5
20260904230339 87 256 3.0 3.0 0.00 0.00 0.00 80 1013.5
20260904225840 87 221 3.0 3.0 0.00 0.00 0.00 79 1013.5
20260904225338 88 271 2.0 3.0 0.00 0.00 0.00 78 1013.5
20260904224838 88 216 3.0 10.0 0.00 0.00 0.00 78 1013.5
20260904224339 89 109 2.0 3.0 0.00 0.00 0.00 77 1013.5
20260904223839 89 245 2.0 5.0 0.00 0.00 0.00 77 1013.5
20260904223338 89 271 0.0 2.0 0.00 0.00 0.00 77 1013.5
20260904222839 89 75 2.0 2.0 0.00 0.00 0.00 78 1013.5
20260904222339 89 219 3.0 5.0 0.00 0.00 0.00 75 1013.5
20260904221838 90 225 6.0 7.0 0.00 0.00 0.00 76 1013.5
20260904221338 90 183 2.0 2.0 0.00 0.00 0.00 77 1013.5
20260904220838 90 170 3.0 3.0 0.00 0.00 0.00 77 1013.5
20260904220338 90 240 2.0 2.0 0.00 0.00 0.00 76 1013.5
20260904215838 91 190 3.0 5.0 0.00 0.00 0.00 75 1013.5
20260904215338 91 222 3.0 10.0 0.00 0.00 0.00 75 1013.5
20260904214838 91 236 5.0 5.0 0.00 0.00 0.00 76 1013.5
20260904214341 92 234 5.0 5.0 0.00 0.00 0.00 75 1013.5
20260904213839 92 227 6.0 7.0 0.00 0.00 0.00 75 1013.5
20260904213338 92 71 2.0 2.0 0.00 0.00 0.00 75 1013.2
20260904212838 92 277 2.0 3.0 0.00 0.00 0.00 76 1013.2
20260904212339 92 208 2.0 2.0 0.00 0.00 0.00 74 1013.2
20260904211839 93 201 2.0 3.0 0.00 0.00 0.00 75 1013.2
20260904211338 93 204 2.0 2.0 0.00 0.00 0.00 73 1013.2
20260904210838 94 201 2.0 3.0 0.00 0.00 0.00 72 1013.2
20260904210338 93 89 2.0 3.0 0.00 0.00 0.00 72 1013.2
20260904205839 95 226 3.0 5.0 0.00 0.00 0.00 70 1013.2
20260904205338 95 206 3.0 5.0 0.00 0.00 0.00 65 1013.2
20260904204839 95 197 6.0 7.0 0.00 0.00 0.00 64 1013.2
20260904204338 94 210 10.0 10.0 0.00 0.00 0.00 64 1013.5
20260904203838 95 301 3.0 5.0 0.00 0.00 0.00 64 1013.5
20260904203339 95 264 2.0 5.0 0.00 0.00 0.00 65 1013.5
20260904202839 95 253 5.0 10.0 0.00 0.00 0.00 63 1013.9
20260904202338 93 285 2.0 2.0 0.00 0.00 0.00 67 1013.9
20260904201839 94 247 3.0 3.0 0.00 0.00 0.00 65 1013.9
20260904201338 94 227 5.0 5.0 0.00 0.00 0.00 66 1014.2
20260904200838 95 238 5.0 5.0 0.00 0.00 0.00 64 1014.2
20260904200339 95 208 3.0 3.0 0.00 0.00 0.00 64 1014.2
20260904195839 96 321 2.0 3.0 0.00 0.00 0.00 70 1014.6
20260904195338 94 248 5.0 10.0 0.00 0.00 0.00 64 1014.6
20260904194838 94 204 5.0 5.0 0.00 0.00 0.00 65 1014.6
20260904194339 94 213 5.0 7.0 0.00 0.00 0.00 65 1014.6
20260904193839 94 281 3.0 3.0 0.00 0.00 0.00 66 1014.9
20260904193339 94 275 3.0 5.0 0.00 0.00 0.00 64 1014.9
20260904192838 95 234 8.0 9.0 0.00 0.00 0.00 63 1014.9
20260904192338 95 254 3.0 9.0 0.00 0.00 0.00 67 1014.9
20260904191838 93 254 2.0 2.0 0.00 0.00 0.00 67 1014.9
20260904191339 94 221 3.0 5.0 0.00 0.00 0.00 66 1015.2
20260904190841 94 205 3.0 5.0 0.00 0.00 0.00 68 1015.2
20260904190338 94 243 5.0 7.0 0.00 0.00 0.00 66 1015.2
20260904185843 94 308 3.0 3.0 0.00 0.00 0.00 65 1015.2
20260904185339 95 228 5.0 5.0 0.00 0.00 0.00 66 1015.2
20260904184838 93 278 3.0 7.0 0.00 0.00 0.00 66 1015.6
20260904184338 94 217 3.0 5.0 0.00 0.00 0.00 67 1015.2
20260904183839 94 227 5.0 5.0 0.00 0.00 0.00 68 1015.6
20260904183338 93 269 3.0 7.0 0.00 0.00 0.00 67 1015.6
20260904182839 93 184 2.0 5.0 0.00 0.00 0.00 65 1015.6
20260904182338 94 227 3.0 5.0 0.00 0.00 0.00 67 1015.9
20260904181839 93 321 2.0 7.0 0.00 0.00 0.00 69 1015.9
20260904181339 92 219 6.0 10.0 0.00 0.00 0.00 68 1015.9
20260904180838 92 227 6.0 7.0 0.00 0.00 0.00 70 1015.9
20260904180339 93 300 2.0 5.0 0.00 0.00 0.00 69 1016.3
20260904175839 92 254 3.0 5.0 0.00 0.00 0.00 71 1016.3
20260904175338 92 266 5.0 7.0 0.00 0.00 0.00 70 1016.3
20260904174839 93 217 6.0 7.0 0.00 0.00 0.00 68 1016.3
20260904174339 93 234 5.0 7.0 0.00 0.00 0.00 70 1016.3
20260904173838 91 223 2.0 5.0 0.00 0.00 0.00 69 1016.3
20260904173339 91 221 3.0 9.0 0.00 0.00 0.00 71 1016.3
20260904172838 91 240 6.0 7.0 0.00 0.00 0.00 70 1016.3
20260904172341 91 201 6.0 12.0 0.00 0.00 0.00 72 1016.3
20260904171839 91 221 3.0 5.0 0.00 0.00 0.00 71 1016.3